DW9688 Weather Reports


time (UTC)temp
C
wind
direction
speed
KPH
gust
KPH
rain 1hr
cm
rain 24hr
cm
rain mn
cm
humidity
%
barometer
mb
20260505181143 12 110 9.7 11.3 0.00 0.33 0.33 82 1006.8
20260505180604 12 109 11.3 17.7 0.00 0.33 0.33 81 1006.7
20260505180104 12 134 16.1 19.3 0.00 0.33 0.33 81 1006.8
20260505175603 12 136 16.1 19.3 0.00 0.33 0.33 81 1006.7
20260505175102 12 132 14.5 19.3 0.00 0.33 0.33 81 1006.7
20260505174602 12 122 12.9 16.1 0.00 0.33 0.33 82 1006.7
20260505174102 12 127 12.9 17.7 0.00 0.33 0.33 82 1006.7
20260505173101 12 120 19.3 24.1 0.00 0.33 0.33 85 1006.7
20260505172601 12 111 22.5 25.7 0.00 0.33 0.33 85 1006.8
20260505172103 12 105 24.1 29.0 0.00 0.33 0.33 86 1006.7
20260505171601 12 109 24.1 29.0 0.00 0.33 0.33 87 1006.7
20260505171101 11 109 24.1 29.0 0.00 0.33 0.33 85 1006.7
20260505165601 12 111 20.9 25.7 0.00 0.33 0.33 84 1006.7
20260505165102 12 122 19.3 25.7 0.00 0.33 0.33 84 1006.9
20260505164108 12 117 20.9 24.1 0.00 0.33 0.33 85 1006.8
20260505163601 12 118 22.5 30.6 0.00 0.33 0.33 84 1006.8
20260505162603 12 109 29.0 33.8 0.00 0.33 0.33 84 1007.0
20260505162118 12 102 29.0 33.8 0.00 0.33 0.33 83 1007.0
20260505161615 12 111 30.6 37.0 0.00 0.33 0.33 81 1006.9
20260505160602 12 138 32.2 38.6 0.03 0.33 0.33 80 1006.6
20260505153101 12 103 29.0 37.0 0.20 0.33 0.30 88 1006.5
20260505152602 12 103 24.1 35.4 0.20 0.33 0.30 88 1006.3
20260505152104 12 104 20.9 25.7 0.20 0.33 0.30 88 1006.6
20260505151601 12 104 19.3 25.7 0.20 0.33 0.30 89 1006.6
20260505151101 12 128 17.7 24.1 0.18 0.33 0.30 88 1006.7
20260505140603 12 355 8.0 19.3 0.13 0.15 0.13 85 1006.3
20260505123615 15 311 8.0 16.1 0.00 0.03 0.03 70 1006.8
20260505123102 15 326 9.7 16.1 0.00 0.03 0.03 70 1006.8
20260505122607 15 315 9.7 16.1 0.00 0.03 0.03 71 1006.8
20260505122102 15 338 9.7 19.3 0.00 0.03 0.03 70 1006.8
20260505121602 15 311 9.7 19.3 0.00 0.03 0.03 71 1006.7
20260505121103 15 307 9.7 19.3 0.00 0.03 0.03 73 1006.7
20260505120619 14 305 11.3 19.3 0.00 0.03 0.03 72 1006.7
20260505115602 15 294 14.5 22.5 0.00 0.03 0.03 73 1006.7
20260505115102 15 315 12.9 22.5 0.00 0.03 0.03 72 1006.7
20260505114604 15 302 9.7 17.7 0.00 0.03 0.03 71 1006.6
20260505114103 15 321 9.7 16.1 0.00 0.03 0.03 70 1006.6
20260505113602 15 293 9.7 19.3 0.00 0.03 0.03 69 1006.7
20260505113101 15 334 9.7 19.3 0.00 0.03 0.03 69 1006.7
20260505112603 15 294 8.0 16.1 0.00 0.03 0.03 68 1006.7
20260505112103 15 301 6.4 14.5 0.00 0.03 0.03 68 1006.6
20260505111104 15 317 6.4 11.3 0.00 0.03 0.03 70 1006.6
20260505110602 14 293 6.4 12.9 0.00 0.03 0.03 71 1006.6
20260505102036 13 285 8.0 14.5 0.00 0.03 0.03 75 1006.4
20260505101535 13 309 8.0 14.5 0.00 0.03 0.03 76 1006.4
20260505100532 13 341 6.4 11.3 0.00 0.03 0.03 80 1006.3
20260505100029 12 299 6.4 11.3 0.00 0.03 0.03 80 1006.3
20260505095529 12 307 6.4 11.3 0.00 0.03 0.03 80 1006.3
20260505095031 12 355 6.4 11.3 0.00 0.03 0.03 81 1006.2
20260505094529 12 293 6.4 11.3 0.00 0.03 0.03 81 1006.2
20260505094029 12 282 4.8 8.0 0.00 0.03 0.03 81 1006.2
20260505093528 12 301 3.2 8.0 0.00 0.03 0.03 82 1006.1
20260505093031 12 37 1.6 4.8 0.00 0.03 0.03 83 1006.1
20260505092529 12 27 1.6 3.2 0.00 0.03 0.03 84 1006.0
20260505092029 11 27 1.6 3.2 0.00 0.03 0.03 85 1006.0
20260505091529 11 27 1.6 3.2 0.00 0.03 0.03 87 1006.0
20260505091030 11 108 1.6 3.2 0.00 0.03 0.03 88 1006.0
20260505085527 11 140 1.6 6.4 0.00 0.03 0.03 88 1005.7
20260505085014 11 140 3.2 6.4 0.00 0.03 0.03 89 1005.7
20260505084009 11 110 1.6 6.4 0.00 0.03 0.03 89 1005.9
20260505083504 11 110 1.6 3.2 0.00 0.03 0.03 90 1005.9
20260505083006 11 110 1.6 3.2 0.00 0.03 0.03 90 1005.7
20260505082504 11 110 1.6 3.2 0.00 0.03 0.03 89 1005.7
20260505082004 11 110 1.6 3.2 0.00 0.03 0.03 90 1005.7
20260505081505 11 110 3.2 6.4 0.00 0.03 0.03 90 1005.9
20260505080503 11 110 4.8 8.0 0.00 0.03 0.03 90 1006.1
20260505080004 11 110 4.8 8.0 0.00 0.03 0.03 91 1006.1
20260505075505 11 106 4.8 6.4 0.00 0.03 0.03 90 1006.3
20260505075004 11 95 3.2 6.4 0.00 0.03 0.03 91 1006.3
20260505074503 11 60 1.6 3.2 0.00 0.03 0.03 91 1006.3
20260505074000 11 60 1.6 4.8 0.00 0.03 0.03 91 1006.3
20260505073501 10 60 3.2 4.8 0.00 0.03 0.03 91 1006.4
20260505073002 10 60 3.2 4.8 0.00 0.03 0.03 92 1006.5
20260505072501 10 301 3.2 4.8 0.00 0.03 0.03 92 1006.7
20260505072001 10 301 3.2 4.8 0.00 0.03 0.03 92 1006.7
20260505071516 10 321 3.2 4.8 0.00 0.03 0.03 92 1006.8
20260505070503 10 281 3.2 4.8 0.00 0.03 0.03 92 1006.7
20260505065509 10 266 1.6 3.2 0.03 0.03 0.03 92 1006.7
20260505065018 10 324 1.6 4.8 0.03 0.03 0.03 92 1006.7
20260505064509 10 324 3.2 4.8 0.03 0.03 0.03 92 1006.8
20260505064001 10 307 3.2 6.4 0.03 0.03 0.03 92 1007.0
20260505063018 10 296 4.8 6.4 0.03 0.03 0.03 92 1007.1
20260505062501 10 312 4.8 6.4 0.03 0.03 0.03 92 1007.0
20260505061459 10 305 3.2 6.4 0.03 0.03 0.03 92 1007.1
20260505061002 10 262 3.2 4.8 0.03 0.03 0.03 92 1007.1
20260505060455 10 290 3.2 4.8 0.03 0.03 0.03 92 1007.1
20260505055946 10 293 3.2 4.8 0.03 0.03 0.00 92 1007.1
20260505055447 10 280 3.2 6.4 0.00 0.00 0.00 92 1007.1
20260505054948 10 271 3.2 6.4 0.00 0.00 0.00 92 1007.1
20260505054445 10 278 3.2 4.8 0.00 0.00 0.00 92 1007.1
20260505053936 10 288 3.2 4.8 0.00 0.00 0.00 92 1007.1
20260505052933 10 287 3.2 6.4 0.00 0.00 0.00 91 1007.1
20260505052431 10 282 3.2 6.4 0.00 0.00 0.00 91 1007.0
20260505051929 10 288 3.2 4.8 0.00 0.00 0.00 91 1007.0
20260505051429 10 271 3.2 6.4 0.00 0.00 0.00 90 1007.0
20260505050930 10 280 4.8 6.4 0.00 0.00 0.00 90 1007.0
20260505050429 10 261 3.2 6.4 0.00 0.00 0.00 90 1007.0
20260505041422 9 288 3.2 4.8 0.00 0.00 0.00 90 1007.0
20260505040922 9 290 3.2 4.8 0.00 0.00 0.00 90 1006.7
20260505040410 9 284 3.2 6.4 0.00 0.00 0.00 90 1006.9
20260505035905 9 269 3.2 6.4 0.00 0.00 0.00 90 1006.9
20260505034858 9 261 4.8 8.0 0.00 0.00 0.00 90 1006.9
20260505034350 9 294 4.8 6.4 0.00 0.00 0.00 90 1006.8
20260505033842 9 296 4.8 8.0 0.00 0.00 0.00 90 1006.9
20260505033342 9 297 4.8 8.0 0.00 0.00 0.00 90 1007.0
20260505031848 9 291 4.8 6.4 0.00 0.00 0.00 90 1006.9
20260505031332 9 280 4.8 6.4 0.00 0.00 0.00 90 1006.9
20260505030832 9 257 4.8 6.4 0.00 0.00 0.00 89 1006.9
20260505030331 9 273 4.8 8.0 0.00 0.00 0.00 89 1006.9
20260505025329 10 251 4.8 8.0 0.00 0.00 0.00 89 1006.9
20260505024830 10 297 4.8 8.0 0.00 0.00 0.00 90 1007.0
20260505024329 10 264 4.8 8.0 0.00 0.00 0.00 90 1007.1
20260505023328 10 290 4.8 8.0 0.00 0.00 0.00 90 1007.1
20260505022831 10 274 4.8 8.0 0.00 0.00 0.00 90 1007.3
20260505022331 10 290 3.2 8.0 0.00 0.00 0.00 90 1007.3
20260505021829 10 306 3.2 6.4 0.00 0.00 0.00 90 1007.3
20260505020834 10 286 1.6 6.4 0.00 0.00 0.00 91 1007.3
20260505020325 10 249 1.6 3.2 0.00 0.00 0.00 91 1007.4
20260505015822 10 249 1.6 3.2 0.00 0.00 0.00 91 1007.4
20260505015319 10 249 0.0 1.6 0.00 0.00 0.00 91 1007.4
20260505014817 10 249 0.0 1.6 0.00 0.00 0.00 91 1007.5
20260505014310 10 249 0.0 1.6 0.00 0.00 0.00 91 1007.5
20260505013805 10 249 1.6 3.2 0.00 0.00 0.00 91 1007.5
20260505012304 10 249 3.2 6.4 0.00 0.00 0.00 91 1007.4
20260505011801 10 242 3.2 6.4 0.00 0.00 0.00 91 1007.5
20260505011304 10 197 1.6 6.4 0.00 0.00 0.00 91 1007.6
20260505010800 10 45 1.6 4.8 0.00 0.00 0.00 91 1007.6
20260505010301 10 45 3.2 4.8 0.00 0.00 0.00 90 1007.6
20260505005817 10 42 1.6 4.8 0.00 0.00 0.00 90 1007.8
20260505005303 10 329 1.6 3.2 0.00 0.00 0.00 90 1008.0
20260505004300 10 329 1.6 3.2 0.00 0.00 0.00 90 1008.1
20260505003801 10 329 1.6 3.2 0.00 0.00 0.00 90 1008.1
20260505003304 10 11 1.6 4.8 0.00 0.00 0.00 90 1008.1
20260505002816 10 11 3.2 4.8 0.00 0.00 0.00 90 1008.2
20260505002303 10 345 1.6 4.8 0.00 0.00 0.00 90 1008.3
20260505001802 10 276 1.6 3.2 0.00 0.00 0.00 90 1008.3
20260505001302 10 276 1.6 3.2 0.00 0.00 0.00 90 1008.6
20260505000801 10 276 1.6 3.2 0.00 0.00 0.00 90 1008.6
20260505000302 10 276 3.2 4.8 0.00 0.00 0.00 90 1008.6
20260504235801 10 276 1.6 4.8 0.00 0.00 0.00 90 1008.6
20260504234800 10 282 3.2 4.8 0.00 0.00 0.00 90 1008.8
20260504233747 10 278 3.2 6.4 0.00 0.00 0.00 90 1008.8
20260504233237 10 263 3.2 4.8 0.00 0.00 0.00 90 1008.9
20260504231244 10 290 3.2 6.4 0.00 0.00 0.00 89 1009.1
20260504230730 10 273 3.2 6.4 0.00 0.00 0.00 89 1009.2
20260504225730 10 259 4.8 6.4 0.00 0.00 0.00 89 1009.3
20260504225230 10 271 3.2 6.4 0.00 0.00 0.00 89 1009.4
20260504224729 11 261 3.2 6.4 0.00 0.00 0.00 89 1009.5
20260504224231 11 305 1.6 4.8 0.00 0.00 0.00 88 1009.5
20260504223744 11 305 1.6 4.8 0.00 0.00 0.00 88 1009.4
20260504223229 11 305 1.6 4.8 0.00 0.00 0.00 88 1009.5
20260504222729 11 305 1.6 4.8 0.00 0.00 0.00 88 1009.5
20260504222230 11 276 1.6 3.2 0.00 0.00 0.00 88 1009.5
20260504221730 11 276 1.6 3.2 0.00 0.00 0.00 88 1009.8
20260504221231 11 276 1.6 3.2 0.00 0.00 0.00 88 1009.7
20260504220729 11 276 1.6 3.2 0.00 0.00 0.00 88 1009.7
20260504220516 11 276 1.6 3.2 0.00 0.00 0.00 87 1009.5
20260504215732 11 276 1.6 3.2 0.00 0.00 0.00 87 1009.7
20260504215230 11 276 1.6 4.8 0.00 0.00 0.00 87 1009.8
20260504214230 11 271 1.6 4.8 0.00 0.00 0.00 87 1010.0
20260504213728 11 271 1.6 4.8 0.00 0.00 0.00 86 1010.0
20260504213228 11 271 3.2 4.8 0.00 0.00 0.00 86 1010.1
20260504212709 11 266 3.2 4.8 0.00 0.00 0.00 86 1010.0
20260504212210 11 298 1.6 4.8 0.00 0.00 0.00 85 1010.1
20260504211706 11 298 1.6 4.8 0.00 0.00 0.00 85 1010.2
20260504211204 12 286 1.6 4.8 0.00 0.00 0.00 85 1010.2
20260504210701 12 286 3.2 6.4 0.00 0.00 0.00 84 1010.2
20260504210202 12 276 3.2 6.4 0.00 0.00 0.00 84 1010.3
20260504205702 12 278 3.2 6.4 0.00 0.00 0.00 84 1010.3
20260504205201 12 285 1.6 4.8 0.00 0.00 0.00 84 1010.4
20260504204701 12 253 3.2 6.4 0.00 0.00 0.00 84 1010.5
20260504203703 12 244 3.2 8.0 0.00 0.00 0.00 84 1010.7
20260504203201 12 283 4.8 8.0 0.00 0.00 0.00 84 1010.6
20260504202701 12 292 4.8 8.0 0.00 0.00 0.00 84 1010.5
20260504202216 12 276 4.8 8.0 0.00 0.00 0.00 84 1010.8
20260504201717 12 261 4.8 8.0 0.00 0.00 0.00 84 1010.8
20260504201200 12 292 4.8 8.0 0.00 0.00 0.00 84 1010.8
20260504200702 12 288 4.8 9.7 0.00 0.00 0.00 84 1010.8
20260504200203 12 282 6.4 9.7 0.00 0.00 0.00 84 1010.7
20260504195704 12 279 6.4 9.7 0.00 0.00 0.00 83 1010.6
20260504195201 12 270 8.0 9.7 0.00 0.00 0.00 83 1010.5
20260504194701 12 276 8.0 11.3 0.00 0.00 0.00 83 1010.6
20260504194200 12 278 8.0 12.9 0.00 0.00 0.00 83 1010.6
20260504192701 12 263 6.4 11.3 0.00 0.00 0.00 82 1010.6
20260504192201 12 282 8.0 11.3 0.00 0.00 0.00 82 1010.7
20260504191702 12 284 6.4 11.3 0.00 0.00 0.00 82 1010.7
20260504191207 12 278 6.4 9.7 0.00 0.00 0.00 81 1010.8
20260504190705 13 249 6.4 11.3 0.00 0.00 0.00 80 1010.7
20260504185704 13 280 6.4 11.3 0.00 0.00 0.00 79 1010.6
20260504184702 13 305 6.4 9.7 0.00 0.00 0.00 78 1010.7
20260504184202 13 288 6.4 9.7 0.00 0.00 0.00 78 1010.8
20260504183704 13 307 6.4 11.3 0.00 0.00 0.00 78 1010.8
20260504183203 13 314 6.4 11.3 0.00 0.00 0.00 78 1010.9
20260504182707 13 324 3.2 9.7 0.00 0.00 0.00 78 1010.8